[[{"header":{"parameterUnit":"m.s-1","parameterCategory":1,"la1":30.2991,"la2":30.254,"lo1":-89.0895,"lo2":-89.0444,"dy":0.0017,"dx":0.0017,"nx":28,"ny":28,"refTime":"2025-09-12T03:00:00:Z","depth":0,"parameterNumber":2,"parameterNumberName":"U-component_of_WINDS"},"data":[0,0,0,0,0,0,0,0,0,0,0,0,0,0,0,0,0,0,0,0,0,0,0,0,0,0,0,0,0,0,0,0,0,0,0,0,0,0,0,0,0,0,0,0,0,0,0,0,0,0,0,0,0,0,0,0,0,0,-0.4433,-0.4432,0,-0.4302,-0.43,-0.4299,-0.425,-0.425,-0.425,-0.4251,-0.4116,-0.4112,-0.4109,0,0,0,0,0,0,0,0,0,0,0,0,0,-0.4644,-0.464,-0.4433,-0.4431,-0.443,-0.4302,-0.43,-0.4298,-0.4249,-0.425,-0.425,-0.4251,-0.4118,-0.4113,-0.4108,0,0,0,0,0,0,0,0,0,0,0,0,0,-0.4536,-0.4639,-0.4433,-0.439,-0.4385,-0.4302,-0.43,-0.4298,-0.4249,-0.425,-0.4251,-0.4251,-0.4119,-0.4113,-0.4108,-0.4059,0,0,-0.4089,-0.4087,0,0,0,0,0,0,0,0,-0.4543,-0.4529,-0.4398,-0.4393,-0.4387,-0.4293,-0.4325,-0.4218,-0.4249,-0.4301,-0.4251,-0.4251,-0.4174,-0.4164,-0.4138,-0.4052,-0.4047,-0.4089,-0.4085,-0.4083,-0.4081,0,0,0,0,0,0,0,-0.455,-0.4534,-0.4381,-0.4396,-0.4389,-0.4378,-0.4363,-0.4305,-0.4236,-0.4296,-0.4292,-0.4278,-0.4172,-0.4144,-0.4135,-0.4045,-0.4089,-0.4084,-0.408,-0.4078,-0.3916,-0.3915,0,0,0,0,0,0,-0.4565,-0.4541,-0.4385,-0.4377,-0.4468,-0.4374,-0.4357,-0.4322,-0.4236,-0.4224,-0.4277,-0.4276,-0.4154,-0.4142,-0.413,-0.4068,-0.4083,-0.4077,-0.4074,-0.3917,-0.3916,-0.3915,0,0,0,0,0,0,-0.4569,-0.4551,-0.4391,-0.4458,-0.4436,-0.4369,-0.433,-0.4319,-0.4292,-0.4222,-0.4209,-0.4261,-0.4154,-0.4138,-0.4077,-0.4063,-0.4074,-0.4069,-0.3917,-0.3916,-0.3915,-0.3945,0,0,0,0,0,0,-0.4576,-0.4553,-0.4533,-0.4458,-0.4433,-0.434,-0.4329,-0.4316,-0.4282,-0.4278,-0.4204,-0.4192,-0.4153,-0.4087,-0.4072,-0.4055,-0.4064,-0.3918,-0.3917,-0.3916,-0.3945,-0.3945,-0.3945,0,0,0,0,0,-0.4583,-0.4546,-0.4532,-0.4514,-0.4406,-0.4339,-0.4325,-0.4281,-0.4281,-0.426,-0.4216,-0.4194,-0.4068,-0.4081,-0.4063,-0.4045,-0.3919,-0.3917,-0.3916,-0.3945,-0.3945,-0.3945,0,0,0,0,0,0,-0.462,-0.4535,-0.4519,-0.4456,-0.4405,-0.4331,-0.4304,-0.4282,-0.423,-0.4229,-0.4177,-0.4161,-0.4105,-0.4069,-0.4085,-0.3995,-0.3992,-0.3987,-0.402,-0.402,-0.402,-0.4029,-0.406,0,0,0,0,0,-0.4621,-0.4573,-0.4501,-0.4453,-0.4428,-0.4371,-0.434,-0.4311,-0.4256,-0.4234,-0.4185,-0.4133,-0.4082,-0.4049,-0.3998,-0.394,-0.3924,-0.392,-0.392,-0.392,-0.3916,-0.3886,-0.3883,-0.3909,-0.3909,-0.391,0,0,-0.4622,-0.457,-0.4542,-0.4459,-0.4416,-0.4369,-0.4353,-0.4302,-0.4267,-0.4226,-0.4166,-0.4129,-0.4068,-0.401,-0.3982,-0.3978,-0.3906,-0.3918,-0.3919,-0.3914,-0.3884,-0.3881,-0.3879,-0.3908,-0.3909,-0.3909,0,0,-0.46,-0.4555,-0.4511,-0.4469,-0.4405,-0.4367,-0.4357,-0.4287,-0.4261,-0.42,-0.417,-0.4128,-0.4039,-0.3998,-0.3965,-0.3932,-0.3911,-0.3917,-0.3917,-0.3888,-0.3886,-0.3884,-0.3873,-0.387,-0.3913,-0.3913,-0.3913,0,-0.4609,-0.4535,-0.4491,-0.4443,-0.4408,-0.437,-0.4326,-0.4288,-0.4211,-0.4188,-0.4186,-0.4077,-0.4033,-0.3965,-0.3958,-0.3932,-0.392,-0.3924,-0.389,-0.3887,-0.3885,-0.3874,-0.387,-0.3915,-0.3915,-0.3914,-0.3914,0,-0.4551,-0.4501,-0.4473,-0.4401,-0.4363,-0.4317,-0.4267,-0.4234,-0.421,-0.4173,-0.4114,-0.406,-0.3999,-0.3981,-0.3955,-0.3911,-0.3911,-0.39,-0.3896,-0.3884,-0.3873,-0.3869,-0.3916,-0.3916,-0.3916,-0.3915,0,0,-0.4546,-0.4452,-0.4442,-0.441,-0.4338,-0.4299,-0.4253,-0.4194,-0.4168,-0.4117,-0.4078,-0.4006,-0.3997,-0.396,-0.393,-0.3905,-0.3884,-0.3897,-0.3895,-0.3897,-0.3834,-0.3843,-0.3838,-0.3871,-0.387,-0.3869,-0.3839,0,-0.4515,-0.443,-0.439,-0.4323,-0.4278,-0.4243,-0.4204,-0.4156,-0.4122,-0.4079,-0.4041,-0.3992,-0.3982,-0.396,-0.3934,-0.3892,-0.3871,-0.3894,-0.3834,-0.3833,-0.385,-0.3832,-0.384,-0.3815,-0.3835,-0.3834,-0.3833,0,-0.4466,-0.4417,-0.4346,-0.4282,-0.4262,-0.4227,-0.4171,-0.413,-0.4077,-0.4054,-0.4015,-0.3987,-0.3939,-0.3939,-0.3873,-0.389,-0.3864,-0.384,-0.3838,-0.3831,-0.3832,-0.3825,-0.3806,-0.3802,-0.3826,-0.3827,-0.3827,0,-0.4471,-0.4386,-0.4334,-0.4307,-0.4232,-0.4208,-0.4176,-0.4123,-0.4091,-0.4043,-0.4022,-0.3968,-0.3939,-0.3899,-0.3858,-0.3862,-0.3797,-0.3794,-0.3778,-0.3779,-0.3764,-0.3766,-0.3741,-0.3748,-0.3748,-0.3748,-0.3748,0,-0.444,-0.4398,-0.4335,-0.4303,-0.4256,-0.4212,-0.4167,-0.4132,-0.4086,-0.4047,-0.4015,-0.3979,-0.3928,-0.3886,-0.3854,-0.3806,-0.3793,-0.3773,-0.3765,-0.3776,-0.3779,-0.3757,-0.3758,-0.3747,-0.3747,-0.3747,-0.3748,0,-0.4437,-0.4393,-0.4333,-0.4268,-0.425,-0.4219,-0.4163,-0.4131,-0.4097,-0.4049,-0.4035,-0.398,-0.393,-0.3886,-0.3819,-0.3798,-0.3749,-0.3739,-0.3767,-0.3762,-0.3749,-0.3751,-0.371,-0.3703,-0.3715,-0.3714,-0.3714,0,-0.442,-0.4387,-0.4319,-0.4291,-0.426,-0.4214,-0.4182,-0.4138,-0.4106,-0.4045,-0.4021,-0.3969,-0.3925,-0.3847,-0.3802,-0.3752,-0.374,-0.373,-0.3732,-0.3745,-0.3741,-0.3743,-0.3741,-0.373,-0.373,-0.373,-0.373,0,-0.4396,-0.4376,-0.4331,-0.4278,-0.4241,-0.4198,-0.4153,-0.4132,-0.4081,-0.4047,-0.3996,-0.3962,-0.3895,-0.3844,-0.379,-0.3757,-0.3735,-0.373,-0.3723,-0.3734,-0.3752,-0.3743,-0.3767,-0.373,-0.373,-0.373,-0.373,-0.373,-0.4385,-0.4356,-0.4304,-0.4255,-0.4218,-0.4178,-0.4145,-0.4108,-0.4064,-0.4006,-0.3984,-0.3932,-0.3883,-0.3807,-0.3776,-0.3735,-0.3731,-0.3722,-0.3719,-0.3718,-0.372,-0.3759,-0.3725,-0.3725,-0.3725,-0.3725,-0.3725,0,-0.436,-0.4326,-0.4281,-0.4221,-0.4183,-0.4167,-0.4118,-0.4088,-0.4043,-0.3999,-0.3957,-0.3899,-0.3851,-0.3803,-0.3753,-0.373,-0.3719,-0.3718,-0.3719,-0.3712,-0.3726,-0.3737,-0.3728,-0.3728,-0.3728,-0.3728,-0.3728,-0.3728,-0.4342,-0.4292,-0.4267,-0.4198,-0.4164,-0.4113,-0.4087,-0.4051,-0.4016,-0.3953,-0.3913,-0.3883,-0.3838,-0.3784,-0.374,-0.3727,-0.371,-0.3712,-0.3697,-0.3711,-0.3711,-0.3711,-0.3721,-0.3709,-0.3709,-0.3686,-0.3686,-0.3686]},{"header":{"parameterUnit":"m.s-1","parameterCategory":1,"la1":30.2991,"la2":30.254,"lo1":-89.0895,"lo2":-89.0444,"dy":0.0017,"dx":0.0017,"nx":28,"ny":28,"refTime":"2025-09-12T03:00:00:Z","depth":0,"parameterNumber":3,"parameterNumberName":"V-component_of_WINDS"},"data":[0,0,0,0,0,0,0,0,0,0,0,0,0,0,0,0,0,0,0,0,0,0,0,0,0,0,0,0,0,0,0,0,0,0,0,0,0,0,0,0,0,0,0,0,0,0,0,0,0,0,0,0,0,0,0,0,0,0,3.295,3.2951,0,3.2983,3.2984,3.2984,3.2924,3.2922,3.292,3.2918,3.2951,3.2954,3.2957,0,0,0,0,0,0,0,0,0,0,0,0,0,3.2833,3.2835,3.295,3.2951,3.2951,3.2983,3.2984,3.2984,3.2925,3.2922,3.292,3.2917,3.295,3.2954,3.2957,0,0,0,0,0,0,0,0,0,0,0,0,0,3.2877,3.2836,3.295,3.2925,3.2923,3.2983,3.2984,3.2984,3.2925,3.2922,3.2919,3.2916,3.2949,3.2953,3.2957,3.3043,0,0,3.297,3.2972,0,0,0,0,0,0,0,0,3.2874,3.2881,3.2929,3.2927,3.2925,3.2947,3.2954,3.3004,3.2926,3.2924,3.2918,3.2915,3.2952,3.2956,3.2968,3.3044,3.3046,3.297,3.2973,3.2974,3.2976,0,0,0,0,0,0,0,3.2871,3.2879,3.2963,3.2929,3.2927,3.2912,3.2915,3.2963,3.2955,3.2924,3.292,3.2925,3.295,3.2965,3.2969,3.3046,3.297,3.2974,3.2976,3.2978,3.3188,3.3191,0,0,0,0,0,0,3.2872,3.2877,3.2962,3.2964,3.2892,3.2916,3.2919,3.2943,3.2954,3.2953,3.2927,3.2922,3.2959,3.2964,3.297,3.3066,3.2974,3.2978,3.2981,3.3185,3.3189,3.3192,0,0,0,0,0,0,3.287,3.288,3.2961,3.292,3.2929,3.2921,3.2948,3.2945,3.2959,3.2956,3.2954,3.2944,3.2957,3.2964,3.3024,3.3066,3.298,3.2984,3.3181,3.3186,3.3191,3.3261,0,0,0,0,0,0,3.2866,3.288,3.2913,3.2921,3.2931,3.3015,3.2951,3.2948,3.2966,3.2959,3.2971,3.297,3.2955,3.3018,3.3028,3.307,3.2987,3.3177,3.3184,3.3189,3.3255,3.3268,3.3279,0,0,0,0,0,3.2862,3.2932,3.2915,3.2925,3.2973,3.3018,3.3024,3.3006,3.297,3.3002,3.3,3.2969,3.3061,3.3025,3.3035,3.308,3.3175,3.3182,3.3189,3.325,3.3265,3.3279,0,0,0,0,0,0,3.2929,3.2933,3.2913,3.2988,3.3003,3.3008,3.3048,3.3024,3.3049,3.3042,3.3018,3.3021,3.3085,3.3089,3.3048,3.316,3.3112,3.3121,3.3154,3.3169,3.3181,3.3176,3.299,0,0,0,0,0,3.2953,3.299,3.2991,3.3057,3.3065,3.3056,3.3075,3.306,3.3074,3.308,3.3083,3.3097,3.3129,3.315,3.318,3.3257,3.3256,3.3293,3.3305,3.3314,3.3321,3.3358,3.3372,3.3215,3.3215,3.3215,0,0,3.3001,3.3008,3.3033,3.307,3.308,3.3117,3.3061,3.3105,3.3131,3.3087,3.3141,3.3144,3.3159,3.3227,3.3257,3.3232,3.3365,3.3323,3.3331,3.3333,3.3366,3.3381,3.3394,3.322,3.3219,3.3219,0,0,3.3107,3.3119,3.3171,3.3182,3.3198,3.3191,3.3204,3.3212,3.3211,3.3267,3.3233,3.3265,3.3321,3.3331,3.3344,3.3453,3.3424,3.3464,3.3524,3.356,3.3572,3.3583,3.3616,3.3629,3.3472,3.3472,3.3472,0,3.3165,3.3221,3.3202,3.3246,3.3262,3.3224,3.3276,3.3288,3.3312,3.3323,3.3296,3.3363,3.3371,3.3438,3.3464,3.3478,3.3489,3.346,3.3572,3.3582,3.3592,3.3624,3.3637,3.3476,3.3476,3.3475,3.3475,0,3.3288,3.3327,3.3369,3.3391,3.3413,3.3461,3.3448,3.3472,3.3455,3.345,3.3505,3.3513,3.3541,3.3557,3.3542,3.3622,3.3605,3.3576,3.3525,3.3612,3.3641,3.3653,3.3482,3.3481,3.348,3.3479,0,0,3.3435,3.3447,3.3461,3.3469,3.3483,3.3512,3.3558,3.3586,3.3604,3.3623,3.3658,3.3706,3.3677,3.3692,3.3678,3.371,3.3789,3.3676,3.3676,3.3692,3.3872,3.389,3.3905,3.3772,3.3775,3.3777,3.3869,0,3.3536,3.3614,3.3597,3.3673,3.3706,3.367,3.371,3.3722,3.3719,3.3746,3.3743,3.3775,3.3738,3.3746,3.3777,3.3773,3.3824,3.3767,3.3801,3.3803,3.3793,3.3921,3.3941,3.4027,3.3881,3.3883,3.3884,0,3.3664,3.3685,3.3763,3.3768,3.3782,3.3817,3.3839,3.3867,3.3879,3.3874,3.389,3.3869,3.3912,3.3865,3.3922,3.3883,3.3897,3.3898,3.39,3.3899,3.3845,3.3917,3.4055,3.4066,3.3903,3.3901,3.39,0,3.3755,3.3805,3.3856,3.3866,3.3874,3.3899,3.3904,3.3914,3.393,3.395,3.3959,3.3985,3.3997,3.4016,3.4002,3.397,3.406,3.4012,3.4054,3.4054,3.407,3.4068,3.4206,3.4088,3.4088,3.4088,3.4088,0,3.3867,3.3915,3.3897,3.3929,3.398,3.3962,3.4014,3.4014,3.4023,3.4052,3.4025,3.4053,3.4035,3.4062,3.4051,3.4097,3.4105,3.41,3.4095,3.4099,3.4099,3.4104,3.4096,3.4091,3.4091,3.409,3.4089,0,3.3976,3.3967,3.402,3.4024,3.4026,3.4064,3.4066,3.4094,3.409,3.4127,3.4135,3.4127,3.4157,3.4146,3.4178,3.417,3.4228,3.4218,3.4223,3.4218,3.4259,3.4253,3.44,3.4417,3.4293,3.4294,3.4295,0,3.4045,3.408,3.4088,3.4105,3.4111,3.4141,3.4157,3.4141,3.4158,3.4173,3.4199,3.4226,3.4246,3.4295,3.4291,3.4315,3.4302,3.4353,3.4306,3.4307,3.4297,3.4293,3.4294,3.436,3.4362,3.4363,3.4364,0,3.4166,3.4159,3.4183,3.4205,3.4225,3.4242,3.4256,3.4272,3.4256,3.4277,3.4306,3.4322,3.4354,3.438,3.44,3.4404,3.438,3.438,3.4389,3.4391,3.439,3.4386,3.4243,3.4375,3.4374,3.4373,3.4372,3.4372,3.4254,3.4282,3.429,3.4317,3.4326,3.4339,3.4365,3.4363,3.4387,3.4411,3.44,3.4433,3.4442,3.4467,3.4474,3.4499,3.4479,3.4495,3.4498,3.4501,3.4503,3.439,3.4503,3.4503,3.4503,3.4502,3.4502,0,3.4368,3.4372,3.4397,3.4417,3.4438,3.4415,3.4429,3.4447,3.4477,3.4487,3.4507,3.454,3.4564,3.4563,3.4585,3.4605,3.4594,3.4611,3.4607,3.4607,3.4522,3.4509,3.4619,3.4619,3.4619,3.4619,3.4619,3.4619,3.443,3.4475,3.4469,3.4518,3.4521,3.4552,3.4562,3.4573,3.4581,3.4618,3.4638,3.4637,3.4642,3.4665,3.4686,3.4684,3.4692,3.4711,3.4706,3.4625,3.4614,3.4602,3.4589,3.4714,3.4715,3.4788,3.4788,3.4789]}]]